Showing default

EXPRESS 103, 45985

Orbit data source: Space-Track

EXPRESS 103, 45985 is a payload satellite owned by KosSvyaz (CIS) in GEO that was launched on Thu, 30 Jul 2020 UTC via a PROTON-M/BRIZ-M launch vehicle from the Tyuratam Missile And Space Complex (TTMTR). Payload-class satellites include a variety of spacecraft equipped with specific instruments for various scientific and technological missions. These include communications satellites like Starlink; space stations such as the ISS; scientific satellites like the Hubble; Earth observation satellites from companies like Planet Labs, Umbra, and HawkEye 360; GPS; miniature CubeSats for education and research; and military/defense satellites.

Not visible in the next 10 days
Identifier
45985, 2020-053A
Orbit
GEO
Country
Flag of CISCIS
Related business
Manufacturer
Resehetnev ISS
Mission
Operational Commercial Communications
Bus & Motor
EKSPRESS-1000N, AOCS
Mass
2,280 kg wet, ~1,800 kg dry
Launch date (UTC)
2020-07-30 (5 years ago)
Launch vehicle
PROTON-M/BRIZ-M
Launch site
Tyuratam Missile And Space Complex (TTMTR)
Object type
Payload
Rocket body
Debris
Shape & HBR
Box + 2 Pan, Unknown HBR
Radar Cross Section
16.987 m², Large (>1 m²)

Expand to show TLE details & history
Last TLE update: 16 hours ago

TLE from 16 hours ago
0 EXPRESS 103
1 45985U 20053A   25308.55485374 -.00000270  00000-0  00000+0 0  9999
2 45985   0.0135 261.7918 0000961 250.2304 188.3047  1.00280229 19395
Epoch: 2025-11-04T13:18Z
TLE epoch observation values (Epoch: 2025-11-04T13:18:59.363Z)
Latitude
0.03816°
Longitude
96.49823°
Altitude
35,787.711 km
Speed
3.075 km/s
True Right ascension
22h 41m 08s
True Declination
0° 02' 17"
Sunlit
Object was in daylight at epoch
Visualization orbit readout
Latitude
Unknown
Longitude
Unknown
Altitude
Unknown
Speed
Unknown
Apparent Right ascension
Unknown
Apparent Declination
Unknown
Sunlit
N/A
Visualization observer readout
Local Sidereal Time
01:45:06
Azimuth
Unknown
Elevation
Unknown
Doppler factor
Unknown
Orbital elements
Apogee altitude
35,789.35 km
Perigee altitude
35,781.246 km
Semi-major axis
42,163.435 km
Eccentricity
0.0001
Inclination
0.0135°
RAAN
261.7918°
Arg. of periapsis
250.2304°
True anomaly
188.30311°
Mean anomaly
188.3047°
Eccentric anomaly
188.3039°
Mean motion
0.25069 °/min
Orbital period
1,436.03 mins
BSTAR
0
Loading maneuver chart data...
Computing Atmospheric mass density...
Loading historical data...
Loading historical data...
Loading historical data...
Loading historical data...
Loading historical data...
Loading historical data...
Loading historical data...
Other satellites on launch #53 in the year 2020 (2020-07-30 UTC)

Documentation

Showing up to 5 results
|